Temperature
17 16 16 16 16 16 16 16 17 16 16 16 16 16 16 16 16 16 16 17 17 17 17 17 17 17 17 17 17 17 17 17 17 17 17 17 17 17 17 17 18 18 18
17 16 16 16 16 16 16 17 17 16 16 16 16 15 16 16 16 15 16 16 16 16 17 17 17 17 17 17 17 17 17 17 17 17 17 17 17 17 17 17 17 18 18
17 16 16 16 16 16 16 16 16 16 16 15 15 15 15 15 15 15 16 16 16 16 16 16 16 17 17 17 17 17 17 17 17 17 17 17 17 17 17 17 17 17 18
16 16 16 16 16 16 16 16 16 16 16 16 15 15 15 15 15 15 16 16 16 16 16 16 16 16 17 16 16 16 16 16 16 17 16 16 16 16 16 16 17 17 17
16 16 16 16 16 16 16 16 16 16 16 15 15 15 15 15 15 15 15 16 16 16 16 16 16 16 16 16 16 16 16 16 16 16 16 16 16 16 16 16 17 17 17
16 16 16 16 16 16 16 16 16 16 15 15 15 15 15 15 15 14 15 15 15 16 16 16 16 16 17 17 17 17 16 16 16 16 16 16 17 16 16 17 17 16 17
16 16 16 16 16 16 15 15 16 16 15 15 15 15 14 15 15 14 15 15 15 15 15 16 16 16 16 17 17 17 16 16 16 16 16 16 17 17 17 16 16 16 16
16 16 16 15 16 16 15 15 15 16 15 15 16 15 15 15 14 14 14 14 15 15 15 15 15 15 15 16 16 16 16 16 16 16 16 16 16 17 17 17 16 16 16
17 16 16 16 16 16 15 15 15 16 15 15 16 16 17 17 15 14 14 14 15 15 15 15 15 15 15 15 15 16 16 16 15 15 15 15 16 16 16 17 16 16 16
16 16 16 16 15 15 15 15 15 16 16 15 16 16 17 17 17 16 14 15 14 14 15 15 15 15 15 15 15 16 16 16 15 15 15 15 15 15 15 16 16 16 16
16 16 16 16 15 15 15 15 15 16 15 16 15 15 16 16 17 17 16 15 14 14 14 14 14 14 14 15 15 15 15 16 16 15 15 15 15 15 15 15 15 16 16
16 16 16 15 15 15 16 15 15 15 15 16 16 16 16 16 16 17 17 16 16 15 14 14 14 14 14 14 15 15 15 15 15 15 15 15 15 15 15 15 15 15 15
15 15 15 15 15 15 16 16 16 15 15 15 16 16 16 16 17 17 17 17 16 15 14 14 14 14 14 14 14 15 15 15 15 15 15 15 15 14 14 14 14 15 15
15 14 14 14 14 15 15 15 15 15 15 15 15 16 15 16 16 16 16 17 16 16 15 14 14 14 14 14 14 14 14 14 14 14 14 14 14 14 14 14 14 14 15
14 14 13 13 13 14 14 14 14 14 15 15 15 15 15 15 15 15 15 16 16 16 15 15 15 15 15 14 15 14 13 14 14 14 13 14 14 14 14 14 14 14 14
14 13 13 13 13 13 13 13 13 14 14 14 15 15 15 15 15 15 15 15 15 15 15 15 15 15 15 15 15 14 13 13 13 13 13 13 13 14 14 14 14 14 14
14 13 13 13 13 13 13 13 13 13 13 14 14 15 15 15 15 15 15 15 15 15 15 15 14 14 14 14 15 14 13 13 13 13 13 13 13 13 14 14 14 14 14
14 14 13 13 13 13 13 12 12 12 13 13 14 14 15 15 15 15 15 15 15 15 15 14 14 15 14 14 14 14 14 13 12 13 13 12 12 13 14 14 14 14 14
15 14 14 14 13 13 13 13 13 13 13 13 13 13 14 14 15 15 15 15 15 15 14 14 14 14 14 14 14 14 14 13 12 13 13 12 12 13 13 14 14 14 14
14 14 14 14 14 14 13 13 13 13 13 13 13 13 13 14 14 15 15 15 15 15 14 14 13 14 14 14 14 14 14 14 13 12 13 12 12 12 13 13 14 14 14
14 14 14 14 14 14 14 14 14 13 13 13 13 13 13 14 14 15 15 15 15 15 15 14 14 13 14 14 14 14 14 13 13 12 12 12 12 11 12 13 13 14 13
15 14 14 14 14 14 14 14 14 14 14 14 14 14 14 14 15 15 15 15 15 14 14 14 14 14 14 14 15 14 14 13 12 13 12 12 12 11 11 10 13 13 13
15 15 14 14 14 14 15 15 14 14 14 14 14 14 14 14 14 15 15 15 15 15 15 14 14 14 14 13 14 14 14 14 13 12 13 12 12 11 11 12 12 12 12
15 15 15 15 15 14 15 14 14 14 13 14 14 14 14 14 14 14 14 14 14 14 15 14 14 14 13 13 13 14 14 13 13 12 13 11 12 12 12 12 13 12 12
16 16 15 15 15 14 14 14 14 14 13 14 13 13 13 14 14 14 14 14 14 14 14 14 14 14 13 13 13 13 13 13 12 13 13 12 12 12 12 12 12 12 12
15 15 15 15 14 14 14 14 14 13 13 14 13 13 14 14 14 14 14 14 13 14 14 14 14 14 13 13 13 12 13 13 13 12 14 13 12 12 11 11 12 12 12
Wind_Speed
8 9 8 7 7 6 6 5 6 6 7 7 8 9 10 10 11 11 13 20 19 14 11 10 10 10 10 10 9 7 4 2 1 1 0 0 1 2 4 6 7 7 8
8 8 9 8 8 6 5 6 7 6 6 6 7 8 9 10 11 11 11 15 21 21 18 15 14 12 11 11 11 10 8 5 3 3 2 2 1 2 4 6 6 7 9
10 9 9 10 9 8 7 7 8 6 6 6 6 7 8 9 9 11 11 9 11 17 21 20 19 16 14 13 13 12 11 9 7 6 5 3 2 2 3 4 6 7 9
11 9 9 9 9 8 7 7 7 7 6 5 5 5 6 7 8 8 10 10 10 9 14 18 19 20 19 18 16 14 12 10 9 7 7 5 3 3 2 3 4 6 8
13 11 9 10 11 8 7 8 8 7 7 5 5 4 5 7 7 7 10 10 10 10 9 11 14 17 18 19 18 16 13 10 10 9 7 5 5 4 2 2 3 4 6
13 11 9 11 12 9 8 8 9 7 7 6 5 4 4 5 6 7 7 8 9 11 10 9 8 11 16 18 18 18 17 12 10 9 7 6 4 3 3 2 2 3 4
14 11 8 11 11 11 11 11 9 9 8 8 6 6 5 4 5 4 5 6 8 8 9 9 8 8 8 13 18 18 18 17 12 9 8 7 6 5 4 4 3 2 3
14 11 10 8 11 11 13 13 11 9 8 9 7 7 5 5 3 4 4 4 5 6 7 8 8 8 8 8 12 17 18 18 15 9 11 12 11 8 5 4 3 4 3
13 11 9 8 11 13 12 14 15 14 11 11 9 6 5 4 5 5 4 4 4 3 4 5 6 7 7 7 8 13 16 17 17 15 15 16 15 12 7 4 3 3 4
14 12 10 9 12 13 14 14 16 14 13 12 10 7 5 3 5 5 5 5 4 4 3 3 3 4 5 6 6 10 13 15 16 16 16 16 17 16 11 7 7 6 5
12 13 14 12 14 14 15 14 15 15 13 13 11 10 7 5 6 4 6 6 6 6 4 3 3 2 3 4 4 7 9 12 13 15 15 15 16 17 15 12 11 11 10
8 13 15 14 14 13 13 12 12 15 13 14 13 11 9 8 8 6 5 7 7 6 6 5 4 3 3 3 5 5 6 9 10 12 13 14 15 17 18 18 16 15 13
6 9 12 13 13 12 10 8 8 10 13 14 15 12 10 9 7 7 6 5 5 6 6 6 6 6 5 4 4 3 4 6 6 8 10 11 13 14 15 15 15 15 14
6 7 8 10 11 11 10 9 8 8 11 13 15 13 9 9 7 7 7 6 6 6 6 7 7 8 7 6 5 4 4 4 4 4 7 9 11 12 12 12 12 13 13
5 7 7 7 8 10 10 11 8 8 10 12 13 13 10 8 8 8 8 8 8 7 7 8 7 8 8 7 7 5 4 7 4 4 5 7 8 10 10 10 11 12 12
6 7 7 7 8 8 9 10 10 9 8 8 8 10 9 8 8 9 9 9 9 8 7 5 7 8 9 8 8 6 3 6 4 4 5 5 7 8 9 9 10 10 10
7 8 8 8 9 9 9 8 8 10 8 6 5 7 10 10 9 9 9 9 9 9 9 6 6 7 11 10 9 8 7 6 7 6 6 6 6 7 7 7 8 8 9
7 8 8 8 8 9 9 9 9 8 6 3 3 6 9 9 10 9 9 11 10 11 10 9 7 7 11 11 10 9 8 7 6 8 6 6 6 5 6 6 6 6 7
8 8 9 10 10 10 10 10 9 9 7 6 6 8 9 9 10 9 11 11 10 10 10 9 8 7 7 9 10 9 9 7 7 8 7 7 6 5 4 4 5 4 5
8 8 9 9 10 11 11 11 11 11 12 12 11 10 10 12 12 11 10 12 11 11 10 9 8 8 7 8 10 9 9 8 8 8 7 5 6 6 5 4 3 4 5
9 8 7 8 8 8 9 11 12 13 14 14 13 13 12 12 11 10 9 10 10 9 9 9 10 8 8 8 10 10 9 8 9 7 7 8 8 8 8 8 6 6 6
11 10 10 9 9 7 7 8 9 10 11 13 13 13 12 11 13 13 13 12 9 11 11 11 11 12 13 13 11 10 9 9 7 9 9 7 7 6 7 7 9 7 6
12 12 12 11 11 9 9 8 10 9 10 11 12 11 10 9 11 12 14 15 15 16 14 13 13 15 14 13 14 13 12 12 8 8 9 8 7 7 7 7 11 8 6
11 11 11 12 11 9 10 9 9 12 11 11 11 12 11 12 12 12 11 12 13 14 14 15 14 12 10 10 13 13 13 11 8 7 8 7 7 7 7 9 13 10 9
11 11 11 11 11 10 10 9 9 10 10 11 10 10 11 11 9 8 10 11 11 10 7 8 7 5 2 7 10 9 9 10 9 8 9 7 7 7 7 8 12 14 11
10 9 10 11 12 10 10 9 10 8 9 8 7 7 5 4 5 7 8 7 7 6 4 4 5 6 7 9 13 12 10 10 9 7 10 9 7 7 5 7 8 12 13
Wind_Direction
177 162 163 157 157 153 153 143 133 97 85 74 70 73 77 77 83 83 69 63 62 62 68 74 74 70 69 69 67 71 92 106 135 173 279 49 60 51 26 10 3 2 8
185 175 166 161 165 173 164 156 133 119 104 90 81 74 71 74 77 80 80 72 62 56 59 65 69 70 72 71 68 66 66 65 58 41 21 352 356 19 26 23 22 20 20
188 187 174 175 172 171 167 160 139 126 117 117 102 83 74 67 71 72 67 61 69 63 52 52 56 61 64 64 65 65 64 62 55 44 38 32 15 12 28 35 41 34 27
191 187 180 183 181 173 167 164 163 150 143 144 127 101 91 77 71 72 69 68 60 64 63 51 48 52 58 58 56 57 57 57 52 45 38 32 25 16 15 56 57 42 27
194 186 190 185 186 186 178 177 181 168 159 155 137 120 96 82 80 74 70 67 69 63 65 66 60 49 48 48 45 43 42 47 49 48 40 34 26 14 10 69 61 40 22
204 194 195 196 193 190 188 191 188 183 169 173 156 135 114 105 91 75 74 71 69 68 64 55 61 61 51 43 37 34 30 37 43 42 41 38 24 359 341 338 16 27 21
203 202 211 208 199 198 198 198 191 191 182 178 163 152 144 124 102 105 84 83 79 72 76 69 58 52 63 59 40 34 29 26 28 34 46 47 38 20 356 325 302 333 11
199 197 209 225 210 210 211 209 195 192 191 193 189 175 165 156 156 136 128 102 97 90 75 71 70 62 53 56 53 35 26 20 18 46 60 55 46 35 19 356 312 294 304
191 183 194 222 234 220 218 220 208 195 195 202 206 203 200 177 154 169 163 160 127 115 101 75 73 70 61 54 44 37 23 23 31 52 55 47 37 32 30 24 8 334 302
195 186 194 215 237 236 226 222 216 204 199 198 209 229 236 157 175 162 191 191 179 170 147 132 100 86 76 72 68 42 23 26 33 38 37 33 30 31 37 47 44 37 25
203 201 205 211 227 234 231 223 214 207 202 201 201 205 203 187 228 186 170 183 194 199 185 173 159 121 94 81 64 51 25 29 39 39 34 31 31 33 39 46 48 47 43
215 215 213 215 219 222 222 219 214 210 211 208 206 205 203 203 215 209 194 180 186 183 187 185 192 167 151 132 84 64 35 32 43 45 42 37 35 34 34 38 42 42 40
216 219 216 215 213 209 200 187 193 210 216 216 213 211 212 219 214 215 223 198 187 173 182 197 197 188 187 180 135 131 94 42 46 55 53 46 41 38 34 32 32 32 33
210 207 208 208 207 198 185 172 167 202 217 217 216 213 216 225 225 227 234 232 219 197 198 197 186 195 194 194 140 211 134 84 51 84 72 60 51 44 38 34 33 29 26
205 201 197 195 192 186 180 169 167 189 213 215 212 213 212 217 221 231 237 240 242 235 219 208 191 199 195 192 168 205 174 111 78 106 103 75 63 52 40 34 32 27 19
189 178 185 190 191 186 179 170 162 167 191 208 212 215 213 221 222 222 228 235 242 249 245 205 190 188 191 190 186 207 158 136 126 108 124 100 80 63 44 31 27 20 10
180 185 190 197 196 189 179 166 159 156 165 186 206 219 223 223 218 215 220 227 233 240 244 227 187 187 188 197 178 196 190 200 157 130 125 120 100 74 52 35 26 20 15
192 195 193 203 196 181 175 168 162 156 156 185 247 252 238 220 223 222 221 226 229 233 236 228 195 197 200 199 189 190 195 206 190 139 137 128 115 91 68 42 29 27 35
198 200 197 204 206 195 185 181 175 170 175 206 238 258 260 239 226 228 229 233 231 233 234 227 198 184 200 201 196 195 198 197 203 167 162 152 138 119 98 67 42 40 71
203 203 199 204 209 206 200 195 193 192 195 205 217 231 249 256 250 247 239 239 230 228 229 223 198 184 188 196 197 199 199 197 204 194 188 183 156 147 140 132 88 77 99
211 211 207 204 204 206 204 201 201 205 207 210 215 220 229 246 271 277 268 252 228 221 224 224 215 195 190 184 202 203 202 195 201 196 195 194 192 193 174 168 153 113 103
215 216 218 215 208 206 182 203 226 224 226 223 224 226 226 230 243 244 251 259 250 229 226 228 225 216 209 205 198 195 195 191 201 195 207 200 201 205 200 188 143 134 125
214 214 219 219 218 204 173 201 223 238 238 238 236 233 226 229 231 238 231 230 238 242 246 246 241 238 229 206 193 194 199 200 210 170 192 194 194 205 194 157 147 170 168
207 209 212 217 223 208 186 204 210 232 239 237 236 236 229 228 224 229 233 235 238 232 229 238 250 257 250 213 199 203 203 205 199 165 192 202 189 200 187 184 170 188 193
203 202 203 206 211 206 188 201 211 233 238 236 231 228 228 231 207 213 241 247 247 246 235 245 270 285 254 204 202 206 189 186 195 194 197 212 187 192 191 201 183 187 199
210 206 206 206 205 203 180 196 217 233 237 230 221 217 207 237 159 194 233 251 255 241 218 211 218 215 218 205 200 207 192 198 204 194 191 199 182 185 202 201 193 190 199
Height
1543 1543 1545 1546 1548 1550 1552 1552 1554 1553 1553 1552 1551 1551 1550 1549 1548 1546 1545 1545 1545 1546 1546 1545 1545 1545 1545 1546 1546 1546 1546 1547 1548 1548 1548 1548 1549 1549 1549 1548 1547 1546 1545
1541 1542 1544 1545 1547 1550 1552 1553 1554 1554 1554 1554 1553 1552 1551 1551 1551 1550 1549 1548 1548 1547 1547 1547 1546 1547 1547 1547 1547 1546 1546 1546 1547 1547 1547 1548 1548 1548 1548 1547 1547 1546 1545
1540 1541 1543 1545 1547 1549 1552 1553 1554 1554 1555 1555 1555 1554 1553 1552 1552 1552 1551 1550 1550 1550 1549 1549 1549 1549 1548 1548 1548 1547 1546 1546 1546 1546 1547 1547 1547 1548 1548 1547 1547 1546 1545
1539 1540 1542 1544 1546 1549 1551 1552 1553 1554 1555 1556 1556 1556 1554 1552 1553 1553 1553 1552 1551 1552 1552 1551 1551 1550 1550 1549 1548 1547 1547 1547 1546 1546 1546 1546 1547 1547 1547 1547 1547 1546 1546
1537 1538 1540 1542 1544 1547 1549 1551 1553 1554 1555 1556 1556 1556 1556 1554 1554 1555 1555 1554 1553 1553 1553 1553 1553 1552 1551 1550 1549 1549 1548 1547 1546 1546 1546 1546 1546 1546 1546 1546 1546 1546 1546
1534 1536 1538 1540 1543 1544 1546 1548 1551 1552 1553 1554 1556 1556 1556 1555 1555 1555 1555 1555 1555 1554 1554 1554 1554 1553 1552 1551 1551 1550 1549 1548 1547 1546 1546 1545 1545 1545 1545 1545 1546 1546 1545
1529 1532 1535 1538 1540 1542 1543 1545 1547 1551 1552 1554 1555 1556 1556 1556 1556 1556 1557 1557 1556 1555 1556 1555 1555 1554 1554 1553 1553 1552 1551 1550 1548 1547 1546 1545 1544 1544 1543 1544 1545 1545 1545
1524 1527 1530 1534 1536 1538 1540 1542 1544 1547 1550 1552 1554 1554 1555 1557 1555 1556 1556 1557 1557 1557 1557 1557 1556 1555 1555 1555 1554 1553 1552 1551 1549 1548 1547 1546 1545 1544 1543 1543 1544 1544 1544
1518 1521 1524 1528 1532 1534 1536 1539 1540 1543 1546 1550 1552 1553 1553 1553 1555 1556 1556 1557 1556 1557 1557 1557 1557 1557 1556 1556 1555 1554 1553 1552 1551 1550 1548 1546 1545 1544 1543 1543 1542 1543 1543
1514 1516 1518 1521 1525 1529 1532 1534 1536 1538 1542 1545 1548 1550 1552 1552 1553 1555 1556 1556 1556 1556 1557 1556 1556 1556 1556 1556 1555 1555 1554 1552 1551 1549 1548 1547 1546 1544 1543 1542 1541 1541 1541
1510 1511 1513 1515 1519 1523 1526 1529 1531 1534 1537 1541 1544 1546 1548 1550 1551 1552 1553 1555 1555 1555 1556 1555 1555 1555 1554 1555 1555 1554 1554 1552 1551 1549 1548 1547 1546 1545 1543 1542 1541 1541 1541
1505 1506 1508 1511 1513 1516 1520 1524 1526 1530 1533 1537 1541 1543 1545 1547 1549 1550 1551 1552 1553 1554 1554 1553 1554 1553 1553 1553 1553 1553 1553 1553 1551 1549 1548 1547 1546 1545 1544 1543 1542 1541 1541
1500 1501 1503 1505 1507 1510 1514 1517 1520 1524 1528 1532 1537 1540 1542 1544 1546 1548 1549 1550 1551 1552 1552 1552 1552 1551 1551 1551 1551 1552 1552 1552 1551 1549 1548 1547 1545 1544 1544 1543 1542 1542 1541
1497 1498 1499 1501 1503 1505 1507 1511 1514 1518 1523 1528 1532 1535 1538 1541 1542 1544 1546 1547 1548 1549 1549 1550 1549 1550 1550 1550 1549 1550 1550 1550 1549 1548 1547 1546 1545 1544 1543 1542 1542 1541 1541
1494 1495 1497 1498 1499 1501 1502 1504 1508 1513 1518 1523 1526 1530 1533 1536 1537 1539 1542 1544 1545 1545 1546 1547 1546 1547 1547 1548 1548 1548 1549 1547 1547 1547 1546 1545 1544 1543 1542 1541 1541 1541 1541
1493 1494 1495 1496 1497 1497 1498 1498 1501 1506 1512 1517 1522 1525 1528 1531 1533 1535 1537 1539 1540 1541 1542 1543 1542 1543 1544 1545 1546 1546 1546 1545 1545 1545 1544 1543 1542 1541 1541 1540 1540 1540 1540
1492 1493 1494 1495 1496 1496 1497 1496 1497 1500 1507 1512 1517 1521 1525 1527 1529 1531 1532 1534 1535 1537 1538 1540 1539 1540 1541 1542 1543 1544 1544 1544 1543 1543 1542 1542 1541 1540 1539 1539 1539 1539 1539
1491 1492 1493 1493 1494 1495 1496 1497 1498 1499 1503 1509 1514 1518 1522 1524 1525 1527 1528 1529 1530 1532 1533 1535 1535 1536 1537 1539 1540 1541 1541 1541 1542 1540 1540 1540 1539 1538 1537 1537 1537 1537 1537
1491 1491 1492 1492 1493 1495 1496 1497 1499 1501 1504 1508 1511 1514 1518 1521 1522 1523 1524 1525 1526 1527 1528 1530 1530 1530 1533 1535 1536 1537 1538 1538 1539 1538 1538 1537 1537 1536 1535 1535 1535 1535 1535
1489 1491 1492 1492 1493 1494 1495 1497 1499 1502 1504 1507 1509 1512 1514 1517 1520 1521 1521 1521 1521 1522 1522 1524 1526 1525 1527 1529 1531 1533 1534 1535 1536 1536 1535 1535 1534 1534 1533 1533 1533 1533 1533
1487 1488 1490 1491 1492 1493 1495 1496 1498 1501 1503 1505 1508 1510 1512 1513 1515 1516 1516 1516 1516 1516 1517 1519 1521 1521 1522 1524 1526 1528 1530 1532 1533 1533 1533 1532 1532 1531 1530 1530 1530 1530 1530
1483 1485 1487 1489 1490 1491 1492 1494 1496 1498 1500 1502 1503 1504 1506 1508 1509 1510 1510 1511 1511 1512 1513 1514 1516 1517 1517 1518 1521 1524 1526 1527 1529 1530 1530 1530 1530 1529 1529 1528 1527 1527 1527
1479 1481 1482 1485 1487 1488 1489 1491 1492 1494 1496 1497 1498 1499 1500 1501 1503 1504 1505 1505 1506 1507 1508 1510 1511 1512 1514 1514 1516 1519 1521 1523 1525 1526 1527 1527 1527 1527 1526 1524 1524 1524 1524
1476 1477 1479 1481 1483 1485 1486 1488 1489 1490 1492 1492 1493 1494 1495 1497 1498 1499 1500 1500 1501 1502 1503 1504 1505 1506 1509 1510 1511 1514 1516 1519 1522 1521 1522 1525 1524 1524 1522 1522 1521 1522 1522
1471 1473 1475 1476 1478 1481 1482 1484 1485 1487 1488 1488 1488 1489 1490 1492 1493 1494 1495 1496 1497 1498 1499 1499 1499 1500 1502 1503 1505 1508 1511 1513 1515 1516 1518 1520 1520 1520 1519 1519 1518 1518 1518
1466 1468 1469 1471 1472 1475 1477 1480 1481 1483 1484 1485 1484 1485 1485 1487 1488 1489 1491 1492 1492 1493 1494 1494 1495 1496 1497 1498 1500 1504 1507 1509 1511 1512 1513 1515 1515 1516 1517 1516 1515 1514 1515